{"data":{"norad_id":68979,"epoch":"2026-09-19T21:01:54.492096Z","epoch_age_seconds":73182,"freshness":"FRESH","line1":"1 68979U 26099AE  26262.87632514  .00014214  00000+0  43109-3 0  9990","line2":"2 68979  53.1587  78.3447 0001523  99.1565 260.9610 15.34395701 21813","mean_motion":15.34395701,"eccentricity":0.0001523,"inclination_deg":53.1587,"raan_deg":78.3447,"arg_perigee_deg":99.1565,"mean_anomaly_deg":260.961,"bstar":0.00043109,"rev_number":2181,"period_min":93.84802101971,"perigee_km":461.6741558563,"apogee_km":463.75787968552,"semimajor_km":6840.8530177709,"source":"CELESTRAK","updated_at":"2026-09-20T09:00:44.057412Z"}}